Location: Unspecified
(40.7945°N, 0.0000°E)
Time: 21:06:06
(UTC+00:00)

Courier 1B - All Passes

Search period start: 21 January 2021 00:00
Search period end: 31 January 2021 00:00
Orbit: 962 x 1209 km, 28.3° (Epoch: 21 January)

Date Brightness Start Highest point End Pass type
(mag) Time Alt. Az. Time Alt. Az. Time Alt. Az.
21 Jan - 01:36:52 10° SW 01:42:00 25° S 01:47:11 10° ESE night (unlit)
21 Jan - 03:29:58 10° WSW 03:35:10 26° S 03:40:29 10° SE visible
21 Jan - 05:24:32 10° SW 05:28:16 16° SSW 05:32:04 10° SSE visible
21 Jan - 22:53:23 10° S 22:55:30 12° SSE 22:57:37 10° SE night (unlit)
22 Jan - 00:43:32 10° SW 00:48:29 23° S 00:53:25 10° ESE night (unlit)
22 Jan - 02:36:22 10° WSW 02:41:37 27° S 02:46:58 10° SE visible
22 Jan - 04:30:26 10° WSW 04:34:45 18° SSW 04:39:09 10° SSE visible
22 Jan - 23:50:19 10° SSW 23:54:59 21° SSE 23:59:35 10° ESE night (unlit)
23 Jan - 01:42:48 10° SW 01:48:06 27° S 01:53:24 10° SE night (unlit)
23 Jan - 03:36:32 10° WSW 03:41:14 21° SSW 03:46:00 10° SSE visible
23 Jan - 22:57:15 10° SSW 23:01:28 18° SSE 23:05:38 10° ESE night (unlit)
24 Jan - 00:49:16 10° SW 00:54:34 26° S 00:59:49 10° ESE night (unlit)
24 Jan - 02:42:44 10° WSW 02:47:43 24° S 02:52:44 10° SE visible
24 Jan - 04:38:11 10° SW 04:40:43 12° SSW 04:43:17 10° S visible
24 Jan - 22:04:25 10° SSW 22:07:58 15° SSE 22:11:27 10° SE night (unlit)
24 Jan - 23:55:48 10° SW 00:01:03 25° S 00:06:11 10° ESE night (unlit)
25 Jan - 01:49:00 10° WSW 01:54:12 26° S 01:59:22 10° SE night (unlit)
25 Jan - 03:43:38 10° SW 03:47:15 15° SSW 03:50:53 10° SSE visible
25 Jan - 21:12:07 10° S 21:14:27 12° SSE 21:16:45 10° SE night (unlit)
25 Jan - 23:02:23 10° SW 23:07:31 23° S 23:12:30 10° ESE night (unlit)
26 Jan - 00:55:18 10° WSW 01:00:41 27° S 01:05:57 10° SE night (unlit)
26 Jan - 02:49:28 10° WSW 02:53:45 19° SSW 02:58:04 10° SSE night (unlit)
26 Jan - 22:09:03 10° SSW 22:13:58 21° SSE 22:18:43 10° ESE night (unlit)
27 Jan - 00:01:39 10° SW 00:07:08 27° S 00:12:29 10° SE night (unlit)
27 Jan - 01:55:30 10° WSW 02:00:16 22° SSW 02:05:01 10° SE night (unlit)
27 Jan - 21:15:53 10° SSW 21:20:25 18° SSE 21:24:48 10° ESE visible
27 Jan - 23:08:01 10° SW 23:13:35 27° S 23:18:57 10° ESE night (unlit)
28 Jan - 01:01:36 10° WSW 01:06:45 24° S 01:11:48 10° SE night (unlit)
28 Jan - 02:57:04 10° SW 02:59:44 13° SSW 03:02:23 10° S night (unlit)
28 Jan - 20:22:57 10° SSW 20:26:51 15° SSE 20:30:38 10° SE visible
28 Jan - 22:14:27 10° SW 22:20:01 26° S 22:25:22 10° ESE night (unlit)
29 Jan - 00:07:46 10° WSW 00:13:14 26° S 00:18:31 10° SE night (unlit)
29 Jan - 02:02:28 10° WSW 02:06:16 16° SSW 02:10:02 10° SSE night (unlit)
29 Jan - 19:30:31 10° S 19:33:17 12° SSE 19:36:00 10° SE visible
29 Jan - 21:20:56 10° SW 21:26:25 24° SSE 21:31:41 10° ESE visible
29 Jan - 23:13:59 10° WSW 23:19:41 28° S 23:25:09 10° SE night (unlit)
30 Jan - 01:08:14 10° WSW 01:12:47 20° SSW 01:17:15 10° SSE night (unlit)
30 Jan - 20:27:32 10° SSW 20:32:50 22° SSE 20:37:54 10° ESE visible
30 Jan - 22:20:14 10° SW 22:26:05 28° S 22:31:41 10° ESE night (unlit)
